Time,TemperatureF,DewpointF,PressureIn,WindDirection,WindDirectionDegrees,WindSpeedMPH,WindSpeedGustMPH,Humidity,HourlyPrecipIn,Conditions,Clouds,dailyrainin,SoftwareType,DateUTC
2013-03-30 00:03:00,39.2,30.6,30.18,NW,326,0.0,3.0,71,0.00,,,0.00,Wunderground v.1.15,2013-03-30 04:03:00,
2013-03-30 00:08:00,38.9,30.3,30.18,NW,326,0.0,3.0,71,0.00,,,0.00,Wunderground v.1.15,2013-03-30 04:08:00,
2013-03-30 00:18:00,38.4,29.8,30.18,NW,326,0.0,3.0,71,0.00,,,0.00,Wunderground v.1.15,2013-03-30 04:18:00,
2013-03-30 00:23:00,38.3,30.1,30.18,NW,326,0.0,3.0,72,0.00,,,0.00,Wunderground v.1.15,2013-03-30 04:23:00,
2013-03-30 00:33:00,37.8,29.9,30.19,NW,326,0.0,3.0,73,0.00,,,0.00,Wunderground v.1.15,2013-03-30 04:33:00,
2013-03-30 00:38:00,37.6,29.7,30.19,NW,326,0.0,3.0,73,0.00,,,0.00,Wunderground v.1.15,2013-03-30 04:38:00,
2013-03-30 00:43:00,37.5,30.0,30.19,NW,326,0.0,3.0,74,0.00,,,0.00,Wunderground v.1.15,2013-03-30 04:43:00,
2013-03-30 00:48:00,37.3,29.8,30.19,NW,326,0.0,3.0,74,0.00,,,0.00,Wunderground v.1.15,2013-03-30 04:48:00,
2013-03-30 00:53:00,37.2,29.7,30.19,NW,326,0.0,3.0,74,0.00,,,0.00,Wunderground v.1.15,2013-03-30 04:53:00,
2013-03-30 00:58:00,37.0,29.5,30.19,NW,326,0.0,3.0,74,0.00,,,0.00,Wunderground v.1.15,2013-03-30 04:58:00,
2013-03-30 01:03:00,36.9,29.7,30.19,NW,326,0.0,3.0,75,0.00,,,0.00,Wunderground v.1.15,2013-03-30 05:03:00,
2013-03-30 01:08:00,36.8,29.6,30.19,NW,326,0.0,3.0,75,0.00,,,0.00,Wunderground v.1.15,2013-03-30 05:08:00,
2013-03-30 01:13:00,36.8,29.9,30.19,NW,326,0.0,3.0,76,0.00,,,0.00,Wunderground v.1.15,2013-03-30 05:13:00,
2013-03-30 01:18:00,36.8,29.9,30.19,NW,326,0.0,3.0,76,0.00,,,0.00,Wunderground v.1.15,2013-03-30 05:18:00,
2013-03-30 01:23:00,36.6,29.7,30.19,NW,326,0.0,3.0,76,0.00,,,0.00,Wunderground v.1.15,2013-03-30 05:23:00,
2013-03-30 01:28:00,36.4,29.6,30.18,NW,326,0.0,3.0,76,0.00,,,0.00,Wunderground v.1.15,2013-03-30 05:28:00,
2013-03-30 01:33:00,36.3,29.5,30.18,NW,326,0.0,3.0,76,0.00,,,0.00,Wunderground v.1.15,2013-03-30 05:33:00,
2013-03-30 01:38:00,36.2,29.7,30.19,NW,326,0.0,3.0,77,0.00,,,0.00,Wunderground v.1.15,2013-03-30 05:38:00,
2013-03-30 01:43:00,36.2,29.7,30.19,NW,326,0.0,3.0,77,0.00,,,0.00,Wunderground v.1.15,2013-03-30 05:43:00,
2013-03-30 01:48:00,36.2,29.7,30.18,NW,326,0.0,3.0,77,0.00,,,0.00,Wunderground v.1.15,2013-03-30 05:48:00,
2013-03-30 01:53:00,36.3,29.8,30.18,NW,326,0.0,3.0,77,0.00,,,0.00,Wunderground v.1.15,2013-03-30 05:53:00,
2013-03-30 01:59:00,36.3,29.8,30.19,NW,326,0.0,0.0,77,0.00,,,0.00,Wunderground v.1.15,2013-03-30 05:59:00,
2013-03-30 02:08:00,36.1,29.9,30.19,NW,326,0.0,0.0,78,0.00,,,0.00,Wunderground v.1.15,2013-03-30 06:08:00,
2013-03-30 02:13:00,36.1,29.9,30.19,NW,326,0.0,0.0,78,0.00,,,0.00,Wunderground v.1.15,2013-03-30 06:13:00,
2013-03-30 02:18:00,36.1,30.2,30.18,NW,326,0.0,0.0,79,0.00,,,0.00,Wunderground v.1.15,2013-03-30 06:18:00,
2013-03-30 02:23:00,36.0,30.1,30.18,NW,326,0.0,0.0,79,0.00,,,0.00,Wunderground v.1.15,2013-03-30 06:23:00,
2013-03-30 02:28:00,36.0,30.1,30.18,NW,326,0.0,0.0,79,0.00,,,0.00,Wunderground v.1.15,2013-03-30 06:28:00,
2013-03-30 02:33:00,36.0,30.1,30.18,NW,326,0.0,0.0,79,0.00,,,0.00,Wunderground v.1.15,2013-03-30 06:33:00,
2013-03-30 02:38:00,36.0,30.1,30.18,NW,326,0.0,0.0,79,0.00,,,0.00,Wunderground v.1.15,2013-03-30 06:38:00,
2013-03-30 02:43:00,36.0,30.1,30.18,NW,326,0.0,0.0,79,0.00,,,0.00,Wunderground v.1.15,2013-03-30 06:43:00,
2013-03-30 02:48:00,36.1,30.2,30.18,NW,326,0.0,0.0,79,0.00,,,0.00,Wunderground v.1.15,2013-03-30 06:48:00,
2013-03-30 02:53:00,36.2,30.6,30.18,NW,326,0.0,0.0,80,0.00,,,0.00,Wunderground v.1.15,2013-03-30 06:53:00,
2013-03-30 02:58:00,36.2,30.6,30.18,NW,326,0.0,0.0,80,0.00,,,0.00,Wunderground v.1.15,2013-03-30 06:58:00,
2013-03-30 03:03:00,36.3,30.7,30.18,NW,326,0.0,0.0,80,0.00,,,0.00,Wunderground v.1.15,2013-03-30 07:03:00,
2013-03-30 03:08:00,36.3,30.4,30.18,NW,326,0.0,0.0,79,0.00,,,0.00,Wunderground v.1.15,2013-03-30 07:08:00,
2013-03-30 03:13:00,36.2,30.3,30.18,NW,326,0.0,0.0,79,0.00,,,0.00,Wunderground v.1.15,2013-03-30 07:13:00,
2013-03-30 03:23:00,36.0,30.4,30.18,NW,326,0.0,0.0,80,0.00,,,0.00,Wunderground v.1.15,2013-03-30 07:23:00,
2013-03-30 03:28:00,36.0,30.4,30.18,NW,326,0.0,0.0,80,0.00,,,0.00,Wunderground v.1.15,2013-03-30 07:28:00,
2013-03-30 03:33:00,36.0,30.4,30.18,NW,326,0.0,0.0,80,0.00,,,0.00,Wunderground v.1.15,2013-03-30 07:33:00,
2013-03-30 03:38:00,36.0,30.7,30.18,NW,326,0.0,0.0,81,0.00,,,0.00,Wunderground v.1.15,2013-03-30 07:38:00,
2013-03-30 03:48:00,36.2,30.6,30.18,NW,326,0.0,2.0,80,0.00,,,0.00,Wunderground v.1.15,2013-03-30 07:48:00,
2013-03-30 03:53:00,36.3,30.7,30.18,NW,326,0.0,2.0,80,0.00,,,0.00,Wunderground v.1.15,2013-03-30 07:53:00,
2013-03-30 03:58:00,36.4,30.8,30.18,NW,326,0.0,3.0,80,0.00,,,0.00,Wunderground v.1.15,2013-03-30 07:58:00,
2013-03-30 04:03:00,36.7,31.1,30.18,NW,326,1.0,3.0,80,0.00,,,0.00,Wunderground v.1.15,2013-03-30 08:03:00,
2013-03-30 04:08:00,37.0,31.1,30.18,NW,313,2.0,3.0,79,0.00,,,0.00,Wunderground v.1.15,2013-03-30 08:08:00,
2013-03-30 04:13:00,37.4,31.5,30.18,WNW,298,3.0,3.0,79,0.00,,,0.00,Wunderground v.1.15,2013-03-30 08:13:00,
2013-03-30 04:23:00,38.0,31.4,30.18,NW,312,3.0,4.0,77,0.00,,,0.00,Wunderground v.1.15,2013-03-30 08:23:00,
2013-03-30 04:28:00,38.3,31.4,30.18,NW,319,3.0,3.0,76,0.00,,,0.00,Wunderground v.1.15,2013-03-30 08:28:00,
2013-03-30 04:33:00,38.5,31.6,30.18,NW,321,3.0,4.0,76,0.00,,,0.00,Wunderground v.1.15,2013-03-30 08:33:00,
2013-03-30 04:38:00,38.7,31.8,30.18,NNW,344,3.0,3.0,76,0.00,,,0.00,Wunderground v.1.15,2013-03-30 08:38:00,
2013-03-30 04:43:00,38.9,31.6,30.18,NW,304,3.0,4.0,75,0.00,,,0.00,Wunderground v.1.15,2013-03-30 08:43:00,
2013-03-30 04:48:00,39.0,31.7,30.18,WNW,302,3.0,3.0,75,0.00,,,0.00,Wunderground v.1.15,2013-03-30 08:48:00,
2013-03-30 04:53:00,39.0,31.4,30.18,WNW,302,2.0,3.0,74,0.00,,,0.00,Wunderground v.1.15,2013-03-30 08:53:00,
2013-03-30 04:58:00,38.9,31.3,30.18,WNW,302,1.0,1.0,74,0.00,,,0.00,Wunderground v.1.15,2013-03-30 08:58:00,
2013-03-30 05:03:00,38.8,31.2,30.18,WNW,302,1.0,1.0,74,0.00,,,0.00,Wunderground v.1.15,2013-03-30 09:03:00,
2013-03-30 05:08:00,38.5,31.3,30.18,WNW,302,0.0,0.0,75,0.00,,,0.00,Wunderground v.1.15,2013-03-30 09:08:00,
2013-03-30 05:13:00,38.2,31.0,30.18,WNW,302,0.0,0.0,75,0.00,,,0.00,Wunderground v.1.15,2013-03-30 09:13:00,
2013-03-30 05:18:00,37.9,31.0,30.18,WNW,302,0.0,0.0,76,0.00,,,0.00,Wunderground v.1.15,2013-03-30 09:18:00,
2013-03-30 05:28:00,37.4,30.8,30.18,WNW,302,0.0,0.0,77,0.00,,,0.00,Wunderground v.1.15,2013-03-30 09:28:00,
2013-03-30 05:33:00,37.2,30.7,30.18,WNW,302,0.0,0.0,77,0.00,,,0.00,Wunderground v.1.15,2013-03-30 09:33:00,
2013-03-30 05:38:00,37.0,30.5,30.18,WNW,302,0.0,0.0,77,0.00,,,0.00,Wunderground v.1.15,2013-03-30 09:38:00,
2013-03-30 05:43:00,36.8,30.6,30.18,WNW,302,0.0,0.0,78,0.00,,,0.00,Wunderground v.1.15,2013-03-30 09:43:00,
2013-03-30 05:48:00,36.6,30.7,30.18,WNW,302,0.0,0.0,79,0.00,,,0.00,Wunderground v.1.15,2013-03-30 09:48:00,
2013-03-30 05:58:00,36.2,30.3,30.19,WNW,302,0.0,0.0,79,0.00,,,0.00,Wunderground v.1.15,2013-03-30 09:58:00,
2013-03-30 06:03:00,36.1,30.2,30.19,WNW,302,0.0,0.0,79,0.00,,,0.00,Wunderground v.1.15,2013-03-30 10:03:00,
2013-03-30 06:08:00,36.0,30.4,30.19,WNW,302,0.0,0.0,80,0.00,,,0.00,Wunderground v.1.15,2013-03-30 10:08:00,
2013-03-30 06:18:00,36.0,30.4,30.19,WNW,302,0.0,0.0,80,0.00,,,0.00,Wunderground v.1.15,2013-03-30 10:18:00,
2013-03-30 06:23:00,35.9,30.3,30.19,WNW,302,0.0,0.0,80,0.00,,,0.00,Wunderground v.1.15,2013-03-30 10:23:00,
2013-03-30 06:28:00,35.7,30.1,30.19,WNW,302,0.0,0.0,80,0.00,,,0.00,Wunderground v.1.15,2013-03-30 10:28:00,
2013-03-30 06:38:00,35.3,30.1,30.19,WNW,302,0.0,0.0,81,0.00,,,0.00,Wunderground v.1.15,2013-03-30 10:38:00,
2013-03-30 06:48:00,35.2,30.3,30.20,WNW,302,0.0,0.0,82,0.00,,,0.00,Wunderground v.1.15,2013-03-30 10:48:00,
2013-03-30 06:53:00,35.1,30.2,30.20,WNW,302,0.0,0.0,82,0.00,,,0.00,Wunderground v.1.15,2013-03-30 10:53:00,
2013-03-30 06:58:00,35.0,30.1,30.20,WNW,302,0.0,0.0,82,0.00,,,0.00,Wunderground v.1.15,2013-03-30 10:58:00,
2013-03-30 07:03:00,35.0,30.1,30.20,WNW,302,0.0,0.0,82,0.00,,,0.00,Wunderground v.1.15,2013-03-30 11:03:00,
2013-03-30 07:08:00,35.0,30.1,30.21,WNW,302,0.0,0.0,82,0.00,,,0.00,Wunderground v.1.15,2013-03-30 11:08:00,
2013-03-30 07:13:00,35.1,30.5,30.21,WNW,302,0.0,1.0,83,0.00,,,0.00,Wunderground v.1.15,2013-03-30 11:13:00,
2013-03-30 07:23:00,35.6,30.9,30.21,WNW,302,1.0,1.0,83,0.00,,,0.00,Wunderground v.1.15,2013-03-30 11:23:00,
2013-03-30 07:28:00,35.9,30.9,30.21,WNW,302,1.0,1.0,82,0.00,,,0.00,Wunderground v.1.15,2013-03-30 11:28:00,
2013-03-30 07:33:00,36.2,31.2,30.21,WNW,302,1.0,1.0,82,0.00,,,0.00,Wunderground v.1.15,2013-03-30 11:33:00,
2013-03-30 07:38:00,36.6,31.3,30.22,WNW,302,1.0,2.0,81,0.00,,,0.00,Wunderground v.1.15,2013-03-30 11:38:00,
2013-03-30 07:43:00,37.1,31.8,30.22,WNW,302,2.0,3.0,81,0.00,,,0.00,Wunderground v.1.15,2013-03-30 11:43:00,
2013-03-30 07:48:00,37.7,32.1,30.21,WNW,302,2.0,2.0,80,0.00,,,0.00,Wunderground v.1.15,2013-03-30 11:48:00,
2013-03-30 07:53:00,38.3,32.4,30.22,WNW,299,2.0,4.0,79,0.00,,,0.00,Wunderground v.1.15,2013-03-30 11:53:00,
2013-03-30 07:58:00,38.8,32.5,30.22,WNW,293,2.0,4.0,78,0.00,,,0.00,Wunderground v.1.15,2013-03-30 11:58:00,
2013-03-30 08:03:00,39.5,32.9,30.22,WNW,297,3.0,4.0,77,0.00,,,0.00,Wunderground v.1.15,2013-03-30 12:03:00,
2013-03-30 08:08:00,40.0,33.0,30.22,WNW,293,3.0,5.0,76,0.00,,,0.00,Wunderground v.1.15,2013-03-30 12:08:00,
2013-03-30 08:13:00,40.6,33.3,30.22,South,179,2.0,5.0,75,0.00,,,0.00,Wunderground v.1.15,2013-03-30 12:13:00,
2013-03-30 08:18:00,41.3,33.6,30.22,WNW,292,2.0,3.0,74,0.00,,,0.00,Wunderground v.1.15,2013-03-30 12:18:00,
2013-03-30 08:28:00,42.5,34.1,30.22,WNW,284,3.0,3.0,72,0.00,,,0.00,Wunderground v.1.15,2013-03-30 12:28:00,
2013-03-30 08:33:00,43.0,33.9,30.22,West,274,3.0,4.0,70,0.00,,,0.00,Wunderground v.1.15,2013-03-30 12:33:00,
2013-03-30 08:38:00,43.6,34.1,30.22,NW,306,2.0,3.0,69,0.00,,,0.00,Wunderground v.1.15,2013-03-30 12:38:00,
2013-03-30 08:43:00,44.1,34.2,30.22,WNW,289,3.0,5.0,68,0.00,,,0.00,Wunderground v.1.15,2013-03-30 12:43:00,
2013-03-30 08:48:00,44.6,34.3,30.22,NNW,327,3.0,3.0,67,0.00,,,0.00,Wunderground v.1.15,2013-03-30 12:48:00,
2013-03-30 08:53:00,45.3,34.2,30.22,NW,306,3.0,3.0,65,0.00,,,0.00,Wunderground v.1.15,2013-03-30 12:53:00,
2013-03-30 09:03:00,46.9,34.1,30.22,WNW,294,4.0,5.0,61,0.00,,,0.00,Wunderground v.1.15,2013-03-30 13:03:00,
2013-03-30 09:08:00,47.4,34.6,30.22,NW,304,4.0,4.0,61,0.00,,,0.00,Wunderground v.1.15,2013-03-30 13:08:00,
2013-03-30 09:18:00,48.8,34.7,30.22,NW,326,4.0,4.0,58,0.00,,,0.00,Wunderground v.1.15,2013-03-30 13:18:00,
2013-03-30 09:28:00,49.9,33.9,30.22,North,5,5.0,10.0,54,0.00,,,0.00,Wunderground v.1.15,2013-03-30 13:28:00,
2013-03-30 09:33:00,50.3,34.7,30.22,NW,314,4.0,10.0,55,0.00,,,0.00,Wunderground v.1.15,2013-03-30 13:33:00,
2013-03-30 09:38:00,50.9,34.4,30.22,North,355,4.0,4.0,53,0.00,,,0.00,Wunderground v.1.15,2013-03-30 13:38:00,
2013-03-30 09:43:00,51.2,34.2,30.22,NW,305,5.0,7.0,52,0.00,,,0.00,Wunderground v.1.15,2013-03-30 13:43:00,
2013-03-30 09:48:00,51.4,34.3,30.22,WNW,294,4.0,4.0,52,0.00,,,0.00,Wunderground v.1.15,2013-03-30 13:48:00,
2013-03-30 09:53:00,51.9,34.3,30.22,NNE,17,3.0,4.0,51,0.00,,,0.00,Wunderground v.1.15,2013-03-30 13:53:00,
2013-03-30 09:58:00,52.4,33.8,30.22,NW,315,4.0,4.0,49,0.00,,,0.00,Wunderground v.1.15,2013-03-30 13:58:00,
2013-03-30 10:03:00,52.7,34.1,30.22,NW,321,4.0,5.0,49,0.00,,,0.00,Wunderground v.1.15,2013-03-30 14:03:00,
2013-03-30 10:08:00,53.1,34.4,30.22,NW,324,4.0,4.0,49,0.00,,,0.00,Wunderground v.1.15,2013-03-30 14:08:00,
2013-03-30 10:13:00,53.3,33.6,30.22,NNW,339,4.0,8.0,47,0.00,,,0.00,Wunderground v.1.15,2013-03-30 14:13:00,
2013-03-30 10:18:00,53.6,33.8,30.22,NW,316,5.0,5.0,47,0.00,,,0.00,Wunderground v.1.15,2013-03-30 14:18:00,
2013-03-30 10:23:00,54.1,33.8,30.22,North,355,4.0,5.0,46,0.00,,,0.00,Wunderground v.1.15,2013-03-30 14:23:00,
2013-03-30 10:33:00,54.7,32.6,30.22,WNW,286,4.0,7.0,43,0.00,,,0.00,Wunderground v.1.15,2013-03-30 14:33:00,
2013-03-30 10:38:00,54.6,32.5,30.22,NW,317,4.0,4.0,43,0.00,,,0.00,Wunderground v.1.15,2013-03-30 14:38:00,
2013-03-30 10:43:00,55.2,33.1,30.22,NE,42,3.0,5.0,43,0.00,,,0.00,Wunderground v.1.15,2013-03-30 14:43:00,
2013-03-30 10:48:00,55.1,33.0,30.21,WNW,288,3.0,3.0,43,0.00,,,0.00,Wunderground v.1.15,2013-03-30 14:48:00,
2013-03-30 10:53:00,55.1,31.8,30.21,North,11,5.0,5.0,41,0.00,,,0.00,Wunderground v.1.15,2013-03-30 14:53:00,
2013-03-30 10:58:00,55.0,32.3,30.21,NNE,14,5.0,5.0,42,0.00,,,0.00,Wunderground v.1.15,2013-03-30 14:58:00,
2013-03-30 11:03:00,54.7,30.2,30.21,NE,51,5.0,5.0,39,0.00,,,0.00,Wunderground v.1.15,2013-03-30 15:03:00,
2013-03-30 11:08:00,54.6,30.7,30.21,NNW,346,4.0,9.0,40,0.00,,,0.00,Wunderground v.1.15,2013-03-30 15:08:00,
2013-03-30 11:13:00,55.0,30.5,30.21,NNE,15,5.0,9.0,39,0.00,,,0.00,Wunderground v.1.15,2013-03-30 15:13:00,
2013-03-30 11:18:00,55.2,29.4,30.21,WNW,282,5.0,5.0,37,0.00,,,0.00,Wunderground v.1.15,2013-03-30 15:18:00,
2013-03-30 11:28:00,55.3,29.4,30.20,North,350,4.0,4.0,37,0.00,,,0.00,Wunderground v.1.15,2013-03-30 15:28:00,
2013-03-30 11:33:00,55.7,31.1,30.20,NE,38,5.0,5.0,39,0.00,,,0.00,Wunderground v.1.15,2013-03-30 15:33:00,
2013-03-30 11:38:00,56.4,29.1,30.20,NNE,20,4.0,4.0,35,0.00,,,0.00,Wunderground v.1.15,2013-03-30 15:38:00,
2013-03-30 11:43:00,56.4,29.1,30.20,ENE,73,4.0,4.0,35,0.00,,,0.00,Wunderground v.1.15,2013-03-30 15:43:00,
2013-03-30 11:48:00,56.5,29.1,30.20,North,360,3.0,4.0,35,0.00,,,0.00,Wunderground v.1.15,2013-03-30 15:48:00,
2013-03-30 11:53:00,56.5,28.4,30.20,North,360,4.0,4.0,34,0.00,,,0.00,Wunderground v.1.15,2013-03-30 15:53:00,
2013-03-30 11:58:00,56.5,29.1,30.20,WSW,255,5.0,7.0,35,0.00,,,0.00,Wunderground v.1.15,2013-03-30 15:58:00,
2013-03-30 12:03:00,57.1,29.7,30.20,NNW,348,4.0,7.0,35,0.00,,,0.00,Wunderground v.1.15,2013-03-30 16:03:00,
2013-03-30 12:08:00,57.6,28.7,30.19,North,350,5.0,5.0,33,0.00,,,0.00,Wunderground v.1.15,2013-03-30 16:08:00,
2013-03-30 12:13:00,57.8,29.6,30.19,NW,311,6.0,6.0,34,0.00,,,0.00,Wunderground v.1.15,2013-03-30 16:13:00,
2013-03-30 12:18:00,58.5,30.2,30.19,North,350,4.0,7.0,34,0.00,,,0.00,Wunderground v.1.15,2013-03-30 16:18:00,
2013-03-30 12:23:00,59.0,28.4,30.19,WSW,251,3.0,7.0,31,0.00,,,0.00,Wunderground v.1.15,2013-03-30 16:23:00,
2013-03-30 12:28:00,57.9,27.4,30.19,NNW,342,5.0,5.0,31,0.00,,,0.00,Wunderground v.1.15,2013-03-30 16:28:00,
2013-03-30 12:33:00,56.8,26.5,30.19,NW,323,5.0,5.0,31,0.00,,,0.00,Wunderground v.1.15,2013-03-30 16:33:00,
2013-03-30 12:38:00,57.0,27.4,30.18,WNW,302,4.0,4.0,32,0.00,,,0.00,Wunderground v.1.15,2013-03-30 16:38:00,
2013-03-30 12:43:00,57.7,29.5,30.18,North,350,4.0,8.0,34,0.00,,,0.00,Wunderground v.1.15,2013-03-30 16:43:00,
2013-03-30 12:48:00,57.7,26.4,30.18,WSW,250,5.0,5.0,30,0.00,,,0.00,Wunderground v.1.15,2013-03-30 16:48:00,
2013-03-30 12:53:00,58.0,27.5,30.18,NW,319,4.0,6.0,31,0.00,,,0.00,Wunderground v.1.15,2013-03-30 16:53:00,
2013-03-30 12:58:00,58.1,27.6,30.18,SW,220,4.0,4.0,31,0.00,,,0.00,Wunderground v.1.15,2013-03-30 16:58:00,
2013-03-30 13:03:00,58.2,26.9,30.18,NW,325,6.0,6.0,30,0.00,,,0.00,Wunderground v.1.15,2013-03-30 17:03:00,
2013-03-30 13:13:00,59.4,27.9,30.17,West,270,4.0,5.0,30,0.00,,,0.00,Wunderground v.1.15,2013-03-30 17:13:00,
2013-03-30 13:18:00,59.6,27.3,30.17,WSW,256,5.0,5.0,29,0.00,,,0.00,Wunderground v.1.15,2013-03-30 17:18:00,
2013-03-30 13:23:00,59.7,28.2,30.17,WSW,240,5.0,6.0,30,0.00,,,0.00,Wunderground v.1.15,2013-03-30 17:23:00,
2013-03-30 13:28:00,59.6,27.3,30.17,NW,322,5.0,6.0,29,0.00,,,0.00,Wunderground v.1.15,2013-03-30 17:28:00,
2013-03-30 13:33:00,60.4,28.0,30.16,West,273,4.0,6.0,29,0.00,,,0.00,Wunderground v.1.15,2013-03-30 17:33:00,
2013-03-30 13:43:00,60.6,27.3,30.16,WNW,298,5.0,5.0,28,0.00,,,0.00,Wunderground v.1.15,2013-03-30 17:43:00,
2013-03-30 13:48:00,60.6,27.3,30.16,NW,313,4.0,7.0,28,0.00,,,0.00,Wunderground v.1.15,2013-03-30 17:48:00,
2013-03-30 13:53:00,60.2,26.9,30.16,WSW,246,5.0,7.0,28,0.00,,,0.00,Wunderground v.1.15,2013-03-30 17:53:00,
2013-03-30 13:58:00,59.5,27.2,30.15,WNW,286,5.0,6.0,29,0.00,,,0.00,Wunderground v.1.15,2013-03-30 17:58:00,
2013-03-30 14:03:00,60.2,26.9,30.15,NNW,327,4.0,6.0,28,0.00,,,0.00,Wunderground v.1.15,2013-03-30 18:03:00,
2013-03-30 14:08:00,60.8,28.3,30.15,WSW,251,4.0,4.0,29,0.00,,,0.00,Wunderground v.1.15,2013-03-30 18:08:00,
2013-03-30 14:13:00,61.4,28.0,30.15,NW,310,4.0,4.0,28,0.00,,,0.00,Wunderground v.1.15,2013-03-30 18:13:00,
2013-03-30 14:18:00,62.1,27.7,30.15,WNW,292,3.0,5.0,27,0.00,,,0.00,Wunderground v.1.15,2013-03-30 18:18:00,
2013-03-30 14:23:00,62.5,27.1,30.15,NW,322,4.0,5.0,26,0.00,,,0.00,Wunderground v.1.15,2013-03-30 18:23:00,
2013-03-30 14:28:00,61.7,26.4,30.15,SSW,209,5.0,5.0,26,0.00,,,0.00,Wunderground v.1.15,2013-03-30 18:28:00,
2013-03-30 14:33:00,60.9,26.7,30.15,WNW,297,5.0,5.0,27,0.00,,,0.00,Wunderground v.1.15,2013-03-30 18:33:00,
2013-03-30 14:43:00,61.0,26.7,30.14,WNW,282,6.0,7.0,27,0.00,,,0.00,Wunderground v.1.15,2013-03-30 18:43:00,
2013-03-30 14:48:00,61.5,25.3,30.14,NW,315,5.0,5.0,25,0.00,,,0.00,Wunderground v.1.15,2013-03-30 18:48:00,
2013-03-30 14:53:00,60.6,29.8,30.15,SE,124,4.0,6.0,31,0.00,,,0.00,Wunderground v.1.15,2013-03-30 18:53:00,
2013-03-30 15:03:00,56.5,31.2,30.15,SSE,150,4.0,5.0,38,0.00,,,0.00,Wunderground v.1.15,2013-03-30 19:03:00,
2013-03-30 15:08:00,55.7,31.7,30.15,South,190,5.0,5.0,40,0.00,,,0.00,Wunderground v.1.15,2013-03-30 19:08:00,
2013-03-30 15:13:00,55.0,30.5,30.14,SE,136,5.0,5.0,39,0.00,,,0.00,Wunderground v.1.15,2013-03-30 19:13:00,
2013-03-30 15:23:00,54.8,30.3,30.15,SE,144,4.0,8.0,39,0.00,,,0.00,Wunderground v.1.15,2013-03-30 19:23:00,
2013-03-30 15:28:00,54.7,30.2,30.14,ESE,113,5.0,5.0,39,0.00,,,0.00,Wunderground v.1.15,2013-03-30 19:28:00,
2013-03-30 15:33:00,53.5,29.7,30.14,South,169,6.0,8.0,40,0.00,,,0.00,Wunderground v.1.15,2013-03-30 19:33:00,
2013-03-30 15:38:00,52.9,30.4,30.14,East,101,5.0,5.0,42,0.00,,,0.00,Wunderground v.1.15,2013-03-30 19:38:00,
2013-03-30 15:43:00,52.7,31.9,30.14,ESE,105,4.0,5.0,45,0.00,,,0.00,Wunderground v.1.15,2013-03-30 19:43:00,
2013-03-30 15:48:00,52.7,31.9,30.14,SE,130,5.0,9.0,45,0.00,,,0.00,Wunderground v.1.15,2013-03-30 19:48:00,
2013-03-30 15:53:00,52.7,32.5,30.14,ESE,117,5.0,9.0,46,0.00,,,0.00,Wunderground v.1.15,2013-03-30 19:53:00,
2013-03-30 15:58:00,52.2,32.6,30.13,SSE,155,4.0,8.0,47,0.00,,,0.00,Wunderground v.1.15,2013-03-30 19:58:00,
2013-03-30 16:08:00,51.9,32.3,30.13,SE,141,4.0,6.0,47,0.00,,,0.00,Wunderground v.1.15,2013-03-30 20:08:00,
2013-03-30 16:13:00,51.6,32.0,30.13,SSE,149,5.0,9.0,47,0.00,,,0.00,Wunderground v.1.15,2013-03-30 20:13:00,
2013-03-30 16:18:00,51.5,32.4,30.13,ESE,113,6.0,6.0,48,0.00,,,0.00,Wunderground v.1.15,2013-03-30 20:18:00,
2013-03-30 16:23:00,51.4,32.3,30.13,East,82,6.0,6.0,48,0.00,,,0.00,Wunderground v.1.15,2013-03-30 20:23:00,
2013-03-30 16:28:00,51.5,32.4,30.13,SSW,204,5.0,6.0,48,0.00,,,0.00,Wunderground v.1.15,2013-03-30 20:28:00,
2013-03-30 16:33:00,51.4,32.9,30.13,SE,134,4.0,7.0,49,0.00,,,0.00,Wunderground v.1.15,2013-03-30 20:33:00,
2013-03-30 16:43:00,51.2,32.2,30.13,ESE,106,6.0,7.0,48,0.00,,,0.00,Wunderground v.1.15,2013-03-30 20:43:00,
2013-03-30 16:48:00,51.1,32.6,30.13,South,185,6.0,7.0,49,0.00,,,0.00,Wunderground v.1.15,2013-03-30 20:48:00,
2013-03-30 16:53:00,50.9,32.4,30.13,South,179,5.0,8.0,49,0.00,,,0.00,Wunderground v.1.15,2013-03-30 20:53:00,
2013-03-30 16:58:00,51.3,33.3,30.13,SE,130,6.0,6.0,50,0.00,,,0.00,Wunderground v.1.15,2013-03-30 20:58:00,
2013-03-30 17:03:00,52.1,33.5,30.13,South,171,5.0,6.0,49,0.00,,,0.00,Wunderground v.1.15,2013-03-30 21:03:00,
2013-03-30 17:08:00,52.6,34.0,30.13,SSW,200,5.0,5.0,49,0.00,,,0.00,Wunderground v.1.15,2013-03-30 21:08:00,
2013-03-30 17:13:00,53.3,33.6,30.12,SE,136,4.0,5.0,47,0.00,,,0.00,Wunderground v.1.15,2013-03-30 21:13:00,
2013-03-30 17:18:00,53.6,33.8,30.12,ESE,110,3.0,5.0,47,0.00,,,0.00,Wunderground v.1.15,2013-03-30 21:18:00,
2013-03-30 17:23:00,53.4,32.6,30.12,ESE,123,5.0,7.0,45,0.00,,,0.00,Wunderground v.1.15,2013-03-30 21:23:00,
2013-03-30 17:28:00,52.8,33.1,30.13,SE,139,5.0,5.0,47,0.00,,,0.00,Wunderground v.1.15,2013-03-30 21:28:00,
2013-03-30 17:33:00,52.4,33.3,30.13,SSE,165,4.0,5.0,48,0.00,,,0.00,Wunderground v.1.15,2013-03-30 21:33:00,
2013-03-30 17:38:00,52.3,33.7,30.13,SE,142,4.0,6.0,49,0.00,,,0.00,Wunderground v.1.15,2013-03-30 21:38:00,
2013-03-30 17:48:00,51.7,34.1,30.13,SSE,153,5.0,8.0,51,0.00,,,0.00,Wunderground v.1.15,2013-03-30 21:48:00,
2013-03-30 17:53:00,51.7,35.6,30.13,SSE,167,5.0,8.0,54,0.00,,,0.00,Wunderground v.1.15,2013-03-30 21:53:00,
2013-03-30 17:58:00,51.8,34.7,30.13,SSE,162,4.0,9.0,52,0.00,,,0.00,Wunderground v.1.15,2013-03-30 21:58:00,
2013-03-30 18:03:00,51.7,35.1,30.13,SSE,155,4.0,9.0,53,0.00,,,0.00,Wunderground v.1.15,2013-03-30 22:03:00,
2013-03-30 18:08:00,51.5,35.4,30.13,SSE,154,4.0,4.0,54,0.00,,,0.00,Wunderground v.1.15,2013-03-30 22:08:00,
2013-03-30 18:18:00,51.5,34.9,30.13,SE,146,3.0,3.0,53,0.00,,,0.00,Wunderground v.1.15,2013-03-30 22:18:00,
2013-03-30 18:23:00,51.4,35.3,30.13,South,189,3.0,3.0,54,0.00,,,0.00,Wunderground v.1.15,2013-03-30 22:23:00,
2013-03-30 18:28:00,51.3,34.3,30.13,South,169,4.0,4.0,52,0.00,,,0.00,Wunderground v.1.15,2013-03-30 22:28:00,
2013-03-30 18:33:00,51.2,34.6,30.13,SE,138,5.0,5.0,53,0.00,,,0.00,Wunderground v.1.15,2013-03-30 22:33:00,
2013-03-30 18:38:00,51.0,34.9,30.13,SE,141,4.0,4.0,54,0.00,,,0.00,Wunderground v.1.15,2013-03-30 22:38:00,
2013-03-30 18:48:00,50.8,34.7,30.13,SE,140,3.0,3.0,54,0.00,,,0.00,Wunderground v.1.15,2013-03-30 22:48:00,
2013-03-30 18:53:00,50.6,34.6,30.13,SSE,150,3.0,3.0,54,0.00,,,0.00,Wunderground v.1.15,2013-03-30 22:53:00,
2013-03-30 18:58:00,50.4,34.4,30.13,SSE,150,3.0,4.0,54,0.00,,,0.00,Wunderground v.1.15,2013-03-30 22:58:00,
2013-03-30 19:03:00,50.3,34.3,30.13,South,186,2.0,4.0,54,0.00,,,0.00,Wunderground v.1.15,2013-03-30 23:03:00,
2013-03-30 19:08:00,50.0,34.5,30.13,SSE,167,1.0,1.0,55,0.00,,,0.00,Wunderground v.1.15,2013-03-30 23:08:00,
2013-03-30 19:13:00,49.8,33.8,30.13,SSE,167,1.0,1.0,54,0.00,,,0.00,Wunderground v.1.15,2013-03-30 23:13:00,
2013-03-30 19:18:00,49.6,34.5,30.13,SSE,167,0.0,1.0,56,0.00,,,0.00,Wunderground v.1.15,2013-03-30 23:18:00,
2013-03-30 19:23:00,49.2,34.6,30.13,SSE,167,0.0,1.0,57,0.00,,,0.00,Wunderground v.1.15,2013-03-30 23:23:00,
2013-03-30 19:28:00,48.9,34.3,30.14,SSE,167,1.0,1.0,57,0.00,,,0.00,Wunderground v.1.15,2013-03-30 23:28:00,
2013-03-30 19:33:00,48.6,34.0,30.14,SW,218,1.0,1.0,57,0.00,,,0.00,Wunderground v.1.15,2013-03-30 23:33:00,
2013-03-30 19:43:00,48.3,34.2,30.14,SSW,192,0.0,1.0,58,0.00,,,0.00,Wunderground v.1.15,2013-03-30 23:43:00,
2013-03-30 19:48:00,48.0,34.3,30.14,SSW,192,1.0,1.0,59,0.00,,,0.00,Wunderground v.1.15,2013-03-30 23:48:00,
2013-03-30 19:58:00,47.6,34.8,30.14,SE,125,1.0,1.0,61,0.00,,,0.00,Wunderground v.1.15,2013-03-30 23:58:00,
2013-03-30 20:03:00,47.4,35.0,30.14,SE,125,1.0,1.0,62,0.00,,,0.00,Wunderground v.1.15,2013-03-31 00:03:00,
2013-03-30 20:13:00,46.9,35.4,30.14,SE,138,1.0,1.0,64,0.00,,,0.00,Wunderground v.1.15,2013-03-31 00:13:00,
2013-03-30 20:18:00,46.7,35.6,30.14,SE,138,1.0,1.0,65,0.00,,,0.00,Wunderground v.1.15,2013-03-31 00:18:00,
2013-03-30 20:23:00,46.3,35.6,30.14,SSE,159,0.0,1.0,66,0.00,,,0.00,Wunderground v.1.15,2013-03-31 00:23:00,
2013-03-30 20:28:00,46.1,35.4,30.15,SSE,159,0.0,0.0,66,0.00,,,0.00,Wunderground v.1.15,2013-03-31 00:28:00,
2013-03-30 20:33:00,45.8,35.5,30.15,SSE,159,0.0,0.0,67,0.00,,,0.00,Wunderground v.1.15,2013-03-31 00:33:00,
2013-03-30 20:43:00,45.2,35.3,30.15,SSE,159,0.0,0.0,68,0.00,,,0.00,Wunderground v.1.15,2013-03-31 00:43:00,
2013-03-30 20:48:00,44.9,35.3,30.15,SSE,159,0.0,0.0,69,0.00,,,0.00,Wunderground v.1.15,2013-03-31 00:48:00,
2013-03-30 20:53:00,44.6,35.4,30.15,SSE,159,0.0,0.0,70,0.00,,,0.00,Wunderground v.1.15,2013-03-31 00:53:00,
2013-03-30 20:58:00,44.3,35.5,30.15,SSE,159,0.0,0.0,71,0.00,,,0.00,Wunderground v.1.15,2013-03-31 00:58:00,
2013-03-30 21:03:00,44.0,35.2,30.15,SSE,159,0.0,0.0,71,0.00,,,0.00,Wunderground v.1.15,2013-03-31 01:03:00,
2013-03-30 21:08:00,43.7,34.9,30.15,SSE,159,0.0,0.0,71,0.00,,,0.00,Wunderground v.1.15,2013-03-31 01:08:00,
2013-03-30 21:13:00,43.4,34.6,30.15,SSE,159,0.0,0.0,71,0.00,,,0.00,Wunderground v.1.15,2013-03-31 01:13:00,
2013-03-30 21:18:00,43.1,34.7,30.15,SSE,159,0.0,0.0,72,0.00,,,0.00,Wunderground v.1.15,2013-03-31 01:18:00,
2013-03-30 21:23:00,42.8,34.7,30.15,SSE,159,0.0,0.0,73,0.00,,,0.00,Wunderground v.1.15,2013-03-31 01:23:00,
2013-03-30 21:28:00,42.5,34.5,30.16,SSE,159,0.0,0.0,73,0.00,,,0.00,Wunderground v.1.15,2013-03-31 01:28:00,
2013-03-30 21:33:00,42.3,34.3,30.16,SSE,159,0.0,0.0,73,0.00,,,0.00,Wunderground v.1.15,2013-03-31 01:33:00,
2013-03-30 21:43:00,41.8,34.1,30.16,SSE,159,0.0,0.0,74,0.00,,,0.00,Wunderground v.1.15,2013-03-31 01:43:00,
2013-03-30 21:48:00,41.6,33.9,30.16,SSE,159,0.0,0.0,74,0.00,,,0.00,Wunderground v.1.15,2013-03-31 01:48:00,
2013-03-30 21:53:00,41.6,33.6,30.16,SSE,159,0.0,0.0,73,0.00,,,0.00,Wunderground v.1.15,2013-03-31 01:53:00,
2013-03-30 21:58:00,41.7,33.7,30.16,SSE,159,0.0,0.0,73,0.00,,,0.00,Wunderground v.1.15,2013-03-31 01:58:00,
2013-03-30 22:03:00,41.6,33.6,30.16,SSE,159,0.0,0.0,73,0.00,,,0.00,Wunderground v.1.15,2013-03-31 02:03:00,
2013-03-30 22:13:00,41.5,33.1,30.16,SSE,159,0.0,0.0,72,0.00,,,0.00,Wunderground v.1.15,2013-03-31 02:13:00,
2013-03-30 22:23:00,41.2,32.5,30.17,SSE,159,0.0,0.0,71,0.00,,,0.00,Wunderground v.1.15,2013-03-31 02:23:00,
2013-03-30 22:28:00,41.1,32.1,30.17,SSE,159,0.0,0.0,70,0.00,,,0.00,Wunderground v.1.15,2013-03-31 02:28:00,
2013-03-30 22:33:00,41.3,31.5,30.17,SSE,159,0.0,0.0,68,0.00,,,0.00,Wunderground v.1.15,2013-03-31 02:33:00,
2013-03-30 22:38:00,41.4,31.3,30.17,SSE,159,0.0,0.0,67,0.00,,,0.00,Wunderground v.1.15,2013-03-31 02:38:00,
2013-03-30 22:43:00,41.6,30.7,30.17,SSE,159,0.0,0.0,65,0.00,,,0.00,Wunderground v.1.15,2013-03-31 02:43:00,
2013-03-30 22:48:00,41.7,30.4,30.17,SSE,159,0.0,0.0,64,0.00,,,0.00,Wunderground v.1.15,2013-03-31 02:48:00,
2013-03-30 22:58:00,42.4,29.1,30.17,SW,236,1.0,1.0,59,0.00,,,0.00,Wunderground v.1.15,2013-03-31 02:58:00,
2013-03-30 23:03:00,42.9,29.1,30.17,SW,236,1.0,1.0,58,0.00,,,0.00,Wunderground v.1.15,2013-03-31 03:03:00,
2013-03-30 23:08:00,43.3,28.6,30.17,WSW,242,1.0,2.0,56,0.00,,,0.00,Wunderground v.1.15,2013-03-31 03:08:00,
2013-03-30 23:13:00,43.6,28.0,30.17,West,275,1.0,2.0,54,0.00,,,0.00,Wunderground v.1.15,2013-03-31 03:13:00,
2013-03-30 23:18:00,43.8,28.2,30.17,West,272,1.0,1.0,54,0.00,,,0.00,Wunderground v.1.15,2013-03-31 03:18:00,
2013-03-30 23:23:00,44.1,28.0,30.17,West,264,2.0,2.0,53,0.00,,,0.00,Wunderground v.1.15,2013-03-31 03:23:00,
2013-03-30 23:28:00,44.5,28.0,30.17,SW,229,2.0,2.0,52,0.00,,,0.00,Wunderground v.1.15,2013-03-31 03:28:00,
2013-03-30 23:33:00,44.7,27.7,30.17,West,262,2.0,2.0,51,0.00,,,0.00,Wunderground v.1.15,2013-03-31 03:33:00,
2013-03-30 23:43:00,44.6,27.6,30.17,West,262,1.0,2.0,51,0.00,,,0.00,Wunderground v.1.15,2013-03-31 03:43:00,
2013-03-30 23:48:00,44.3,27.8,30.17,West,262,0.0,0.0,52,0.00,,,0.00,Wunderground v.1.15,2013-03-31 03:48:00,
2013-03-30 23:53:00,44.0,28.0,30.17,SW,214,1.0,4.0,53,0.00,,,0.00,Wunderground v.1.15,2013-03-31 03:53:00,
2013-03-30 23:58:00,44.0,27.5,30.18,WSW,258,1.0,2.0,52,0.00,,,0.00,Wunderground v.1.15,2013-03-31 03:58:00,